,,PressureMeas_1m,,PRMeasQMR101_1,,RHStat155_1m_1,,SRMeasQMS101R_1m,,TAStat155_1m_1,,GenWind_1,,GenWind_1,
2019-07-08, 00:00:06,VALID,919.544,VALID,0.0,VALID,95.606,VALID,0.011,VALID,20.711,VALID,96.0,VALID,1.529,
2019-07-08, 00:01:06,VALID,919.553,VALID,0.0,VALID,95.477,VALID,0.006,VALID,20.737,VALID,93.0,VALID,1.715,
2019-07-08, 00:02:06,VALID,919.566,VALID,0.0,VALID,95.317,VALID,0.005,VALID,20.777,VALID,96.0,VALID,1.991,
2019-07-08, 00:03:06,VALID,919.55,VALID,0.0,VALID,94.901,VALID,0.005,VALID,20.837,VALID,101.0,VALID,2.31,
2019-07-08, 00:04:06,VALID,919.544,VALID,0.0,VALID,94.374,VALID,0.008,VALID,20.924,VALID,95.0,VALID,2.082,
2019-07-08, 00:05:06,VALID,919.535,VALID,0.0,VALID,94.162,VALID,0.006,VALID,20.939,VALID,98.0,VALID,2.18,
2019-07-08, 00:06:06,VALID,919.521,VALID,0.0,VALID,94.098,VALID,0.027,VALID,20.952,VALID,95.0,VALID,2.027,
2019-07-08, 00:07:06,VALID,919.509,VALID,0.0,VALID,94.205,VALID,0.017,VALID,20.925,VALID,89.0,VALID,2.018,
2019-07-08, 00:08:06,VALID,919.532,VALID,0.0,VALID,94.254,VALID,0.022,VALID,20.885,VALID,91.0,VALID,2.361,
2019-07-08, 00:09:06,VALID,919.51,VALID,0.0,VALID,94.461,VALID,0.013,VALID,20.852,VALID,87.0,VALID,1.907,
2019-07-08, 00:10:06,VALID,919.5,VALID,0.0,VALID,94.651,VALID,0.038,VALID,20.81,VALID,84.0,VALID,2.079,
2019-07-08, 00:11:06,VALID,919.469,VALID,0.0,VALID,94.68,VALID,0.021,VALID,20.81,VALID,75.0,VALID,1.681,
2019-07-08, 00:12:06,VALID,919.411,VALID,0.0,VALID,94.653,VALID,0.011,VALID,20.793,VALID,74.0,VALID,2.154,
2019-07-08, 00:13:06,VALID,919.395,VALID,0.0,VALID,94.493,VALID,0.032,VALID,20.822,VALID,75.0,VALID,1.811,
2019-07-08, 00:14:06,VALID,919.334,VALID,0.0,VALID,94.15,VALID,0.025,VALID,20.857,VALID,79.0,VALID,1.593,
2019-07-08, 00:15:06,VALID,919.28,VALID,0.0,VALID,94.013,VALID,0.023,VALID,20.876,VALID,84.0,VALID,1.696,
2019-07-08, 00:16:06,VALID,919.255,VALID,0.0,VALID,93.934,VALID,0.007,VALID,20.875,VALID,84.0,VALID,1.732,
2019-07-08, 00:17:06,VALID,919.212,VALID,0.0,VALID,93.835,VALID,0.011,VALID,20.875,VALID,91.0,VALID,1.426,
2019-07-08, 00:18:06,VALID,919.171,VALID,0.0,VALID,94.002,VALID,-0.039,VALID,20.842,VALID,98.0,VALID,1.392,
2019-07-08, 00:19:06,VALID,919.174,VALID,0.0,VALID,94.349,VALID,-0.035,VALID,20.775,VALID,109.0,VALID,1.564,
2019-07-08, 00:20:06,VALID,919.165,VALID,0.0,VALID,94.543,VALID,-0.05,VALID,20.73,VALID,109.0,VALID,1.16,
2019-07-08, 00:21:06,VALID,919.17,VALID,0.0,VALID,94.718,VALID,-0.05,VALID,20.692,VALID,110.0,VALID,0.964,
2019-07-08, 00:22:06,VALID,919.173,VALID,0.0,VALID,94.97,VALID,-0.04,VALID,20.652,VALID,112.0,VALID,1.115,
2019-07-08, 00:23:06,VALID,919.17,VALID,0.0,VALID,95.182,VALID,-0.047,VALID,20.63,VALID,128.0,VALID,1.136,
2019-07-08, 00:24:06,VALID,919.151,VALID,0.0,VALID,95.389,VALID,-0.058,VALID,20.642,VALID,131.0,VALID,0.921,
2019-07-08, 00:25:06,VALID,919.143,VALID,0.0,VALID,95.39,VALID,-0.053,VALID,20.66,VALID,123.0,VALID,0.67,
2019-07-08, 00:26:06,VALID,919.121,VALID,0.0,VALID,95.432,VALID,-0.047,VALID,20.682,VALID,91.0,VALID,0.17,
2019-07-08, 00:27:06,VALID,919.093,VALID,0.0,VALID,95.355,VALID,-0.051,VALID,20.689,VALID,144.0,VALID,0.123,
2019-07-08, 00:28:06,VALID,919.065,VALID,0.0,VALID,95.385,VALID,-0.044,VALID,20.692,VALID,116.0,VALID,0.435,
2019-07-08, 00:29:06,VALID,919.027,VALID,0.0,VALID,95.594,VALID,-0.06,VALID,20.683,VALID,68.0,VALID,0.0,
2019-07-08, 00:30:06,VALID,918.982,VALID,0.0,VALID,95.641,VALID,-0.068,VALID,20.659,VALID,115.0,VALID,0.0,
2019-07-08, 00:31:06,VALID,918.948,VALID,0.0,VALID,95.811,VALID,-0.054,VALID,20.646,VALID,130.0,VALID,0.0,
2019-07-08, 00:32:06,VALID,918.911,VALID,0.0,VALID,95.788,VALID,-0.042,VALID,20.644,VALID,128.0,VALID,0.0,
2019-07-08, 00:33:06,VALID,918.87,VALID,0.0,VALID,95.778,VALID,0.034,VALID,20.637,VALID,123.0,VALID,0.0,
2019-07-08, 00:34:06,VALID,918.829,VALID,0.0,VALID,95.623,VALID,0.029,VALID,20.639,VALID,132.0,VALID,0.0,
2019-07-08, 00:35:06,VALID,918.784,VALID,0.0,VALID,95.696,VALID,0.02,VALID,20.646,VALID,183.0,VALID,0.0,
2019-07-08, 00:36:06,VALID,918.806,VALID,0.0,VALID,96.026,VALID,0.021,VALID,20.616,INVALID,360.0,VALID,0.0,
2019-07-08, 00:37:06,VALID,918.815,VALID,0.0,VALID,96.806,VALID,0.037,VALID,20.521,INVALID,360.0,VALID,0.0,
2019-07-08, 00:38:06,VALID,918.834,VALID,0.0,VALID,97.47,VALID,0.022,VALID,20.43,INVALID,360.0,VALID,0.0,
2019-07-08, 00:39:06,VALID,918.858,VALID,0.0,VALID,97.849,VALID,0.036,VALID,20.371,INVALID,360.0,VALID,0.0,
2019-07-08, 00:40:06,VALID,918.874,VALID,0.0,VALID,98.192,VALID,0.028,VALID,20.369,VALID,312.0,VALID,0.0,
2019-07-08, 00:41:06,VALID,918.885,VALID,0.0,VALID,98.285,VALID,0.024,VALID,20.338,VALID,273.0,VALID,0.0,
2019-07-08, 00:42:06,VALID,918.882,VALID,0.0,VALID,98.401,VALID,0.001,VALID,20.323,VALID,272.0,VALID,0.0,
2019-07-08, 00:43:07,VALID,918.89,VALID,0.0,VALID,98.458,VALID,0.027,VALID,20.309,VALID,272.0,VALID,0.0,
2019-07-08, 00:44:07,VALID,918.871,VALID,0.0,VALID,98.419,VALID,0.028,VALID,20.242,VALID,272.0,VALID,0.0,
2019-07-08, 00:45:07,VALID,918.843,VALID,0.0,VALID,98.445,VALID,0.004,VALID,20.227,VALID,272.0,VALID,0.0,
2019-07-08, 00:46:07,VALID,918.85,VALID,0.0,VALID,98.537,VALID,0.013,VALID,20.232,VALID,270.0,VALID,0.0,
2019-07-08, 00:47:07,VALID,918.854,VALID,0.0,VALID,98.548,VALID,0.025,VALID,20.21,VALID,167.0,VALID,0.0,
2019-07-08, 00:48:07,VALID,918.83,VALID,0.0,VALID,98.614,VALID,0.004,VALID,20.178,VALID,112.0,VALID,0.0,
2019-07-08, 00:49:07,VALID,918.847,VALID,0.0,VALID,98.641,VALID,0.006,VALID,20.144,VALID,122.0,VALID,0.0,
2019-07-08, 00:50:07,VALID,918.835,VALID,0.0,VALID,98.597,VALID,0.013,VALID,20.097,VALID,108.0,VALID,0.0,
2019-07-08, 00:51:07,VALID,918.821,VALID,0.0,VALID,98.626,VALID,0.005,VALID,20.073,VALID,87.0,VALID,0.0,
2019-07-08, 00:52:07,VALID,918.834,VALID,0.0,VALID,98.643,VALID,0.021,VALID,20.038,VALID,92.0,VALID,0.0,
2019-07-08, 00:53:07,VALID,918.857,VALID,0.0,VALID,98.598,VALID,0.01,VALID,19.982,VALID,93.0,VALID,0.0,
2019-07-08, 00:54:07,VALID,918.868,VALID,0.0,VALID,98.65,VALID,0.01,VALID,19.974,VALID,95.0,VALID,0.0,
2019-07-08, 00:55:07,VALID,918.878,VALID,0.0,VALID,98.744,VALID,0.024,VALID,19.987,VALID,85.0,VALID,0.0,
2019-07-08, 00:56:07,VALID,918.906,VALID,0.0,VALID,98.796,VALID,0.011,VALID,19.973,VALID,89.0,VALID,0.0,
2019-07-08, 00:57:07,VALID,918.896,VALID,0.0,VALID,98.861,VALID,0.001,VALID,19.97,VALID,91.0,VALID,0.0,
2019-07-08, 00:58:07,VALID,918.904,VALID,0.0,VALID,98.87,VALID,0.015,VALID,19.974,VALID,96.0,VALID,0.0,
2019-07-08, 00:59:07,VALID,918.908,VALID,0.0,VALID,98.892,VALID,0.009,VALID,19.998,VALID,96.0,VALID,0.0,
2019-07-08, 01:00:07,VALID,918.936,VALID,0.0,VALID,98.821,VALID,0.02,VALID,19.988,VALID,97.0,VALID,0.0,
2019-07-08, 01:01:07,VALID,918.947,VALID,0.0,VALID,98.737,VALID,0.009,VALID,19.995,VALID,101.0,VALID,0.0,
2019-07-08, 01:02:07,VALID,918.982,VALID,0.0,VALID,98.628,VALID,0.012,VALID,19.968,VALID,104.0,VALID,0.0,
2019-07-08, 01:03:07,VALID,918.99,VALID,0.0,VALID,98.598,VALID,0.009,VALID,19.978,VALID,106.0,VALID,0.0,
2019-07-08, 01:04:07,VALID,919.01,VALID,0.0,VALID,98.57,VALID,0.009,VALID,19.994,VALID,107.0,VALID,0.0,
2019-07-08, 01:05:07,VALID,918.994,VALID,0.0,VALID,98.509,VALID,0.016,VALID,20.0,VALID,102.0,VALID,0.0,
2019-07-08, 01:06:07,VALID,918.995,VALID,0.0,VALID,98.509,VALID,0.005,VALID,20.026,VALID,107.0,VALID,0.0,
2019-07-08, 01:07:07,VALID,918.985,VALID,0.0,VALID,98.451,VALID,-0.013,VALID,20.042,VALID,119.0,VALID,0.0,
2019-07-08, 01:08:07,VALID,918.972,VALID,0.0,VALID,98.394,VALID,-0.006,VALID,20.046,VALID,122.0,VALID,0.0,
2019-07-08, 01:09:07,VALID,918.949,VALID,0.0,VALID,98.362,VALID,0.004,VALID,20.066,VALID,114.0,VALID,0.0,
2019-07-08, 01:10:07,VALID,918.951,VALID,0.0,VALID,98.294,VALID,0.014,VALID,20.067,VALID,112.0,VALID,0.0,
2019-07-08, 01:11:07,VALID,918.946,VALID,0.0,VALID,98.158,VALID,0.009,VALID,20.037,VALID,106.0,VALID,0.0,
2019-07-08, 01:12:07,VALID,918.934,VALID,0.0,VALID,98.105,VALID,0.004,VALID,20.044,VALID,112.0,VALID,0.0,
2019-07-08, 01:13:07,VALID,918.919,VALID,0.0,VALID,98.0,VALID,-0.005,VALID,20.035,VALID,128.0,VALID,0.0,
2019-07-08, 01:14:07,VALID,918.892,VALID,0.0,VALID,97.948,VALID,-0.007,VALID,20.045,VALID,119.0,VALID,0.0,
2019-07-08, 01:15:07,VALID,918.89,VALID,0.0,VALID,98.031,VALID,0.002,VALID,20.087,VALID,133.0,VALID,0.0,
2019-07-08, 01:16:07,VALID,918.889,VALID,0.0,VALID,97.95,VALID,0.016,VALID,20.1,VALID,125.0,VALID,0.0,
2019-07-08, 01:17:07,VALID,918.916,VALID,0.0,VALID,97.881,VALID,0.004,VALID,20.113,VALID,123.0,VALID,0.0,
2019-07-08, 01:18:07,VALID,918.908,VALID,0.0,VALID,97.826,VALID,-0.016,VALID,20.124,VALID,123.0,VALID,0.0,
2019-07-08, 01:19:07,VALID,918.924,VALID,0.0,VALID,97.756,VALID,-0.013,VALID,20.116,VALID,114.0,VALID,0.0,
2019-07-08, 01:20:07,VALID,918.926,VALID,0.0,VALID,97.634,VALID,-0.015,VALID,20.07,VALID,116.0,VALID,0.0,
2019-07-08, 01:21:07,VALID,918.9,VALID,0.0,VALID,97.847,VALID,-0.017,VALID,20.062,VALID,128.0,VALID,0.0,
2019-07-08, 01:22:07,VALID,918.892,VALID,0.0,VALID,98.044,VALID,-0.037,VALID,20.058,VALID,127.0,VALID,0.0,
2019-07-08, 01:23:07,VALID,918.873,VALID,0.0,VALID,98.076,VALID,-0.023,VALID,20.03,VALID,125.0,VALID,0.0,
2019-07-08, 01:24:07,VALID,918.85,VALID,0.0,VALID,98.071,VALID,-0.008,VALID,19.995,VALID,125.0,VALID,0.0,
2019-07-08, 01:25:07,VALID,918.84,VALID,0.0,VALID,98.123,VALID,-0.009,VALID,19.983,VALID,125.0,VALID,0.0,
2019-07-08, 01:26:07,VALID,918.826,VALID,0.0,VALID,98.281,VALID,-0.01,VALID,20.011,VALID,125.0,VALID,0.0,
2019-07-08, 01:27:07,VALID,918.802,VALID,0.0,VALID,98.347,VALID,-0.014,VALID,20.039,VALID,125.0,VALID,0.0,
2019-07-08, 01:28:07,VALID,918.812,VALID,0.0,VALID,98.259,VALID,0.003,VALID,20.01,VALID,107.0,VALID,0.0,
2019-07-08, 01:29:07,VALID,918.804,VALID,0.0,VALID,97.983,VALID,-0.015,VALID,19.91,VALID,104.0,VALID,0.0,
2019-07-08, 01:30:07,VALID,918.792,VALID,0.0,VALID,97.84,VALID,-0.014,VALID,19.854,VALID,106.0,VALID,0.0,
2019-07-08, 01:31:07,VALID,918.755,VALID,0.0,VALID,97.849,VALID,-0.015,VALID,19.892,VALID,120.0,VALID,0.0,
2019-07-08, 01:32:07,VALID,918.756,VALID,0.0,VALID,98.045,VALID,-0.004,VALID,20.021,VALID,123.0,VALID,0.0,
2019-07-08, 01:33:07,VALID,918.732,VALID,0.0,VALID,98.028,VALID,-0.026,VALID,20.106,VALID,115.0,VALID,0.0,
2019-07-08, 01:34:07,VALID,918.738,VALID,0.0,VALID,97.892,VALID,-0.038,VALID,20.09,VALID,102.0,VALID,0.0,
2019-07-08, 01:35:07,VALID,918.705,VALID,0.0,VALID,97.707,VALID,-0.05,VALID,20.042,VALID,84.0,VALID,0.0,
2019-07-08, 01:36:07,VALID,918.692,VALID,0.0,VALID,97.58,VALID,-0.051,VALID,19.998,VALID,71.0,VALID,0.0,
2019-07-08, 01:37:07,VALID,918.656,VALID,0.0,VALID,97.784,VALID,-0.023,VALID,20.018,VALID,79.0,VALID,0.0,
2019-07-08, 01:38:07,VALID,918.648,VALID,0.0,VALID,97.936,VALID,-0.04,VALID,20.057,VALID,83.0,VALID,0.0,
2019-07-08, 01:39:07,VALID,918.625,VALID,0.0,VALID,97.822,VALID,-0.043,VALID,20.095,VALID,93.0,VALID,0.0,
2019-07-08, 01:40:07,VALID,918.599,VALID,0.0,VALID,97.554,VALID,-0.04,VALID,20.127,VALID,86.0,VALID,0.0,
2019-07-08, 01:41:07,VALID,918.585,VALID,0.0,VALID,97.339,VALID,-0.056,VALID,20.172,VALID,84.0,VALID,0.0,
2019-07-08, 01:42:07,VALID,918.57,VALID,0.0,VALID,97.004,VALID,-0.035,VALID,20.171,VALID,70.0,VALID,0.0,
2019-07-08, 01:43:07,VALID,918.533,VALID,0.0,VALID,96.831,VALID,-0.041,VALID,20.148,VALID,66.0,VALID,0.0,
2019-07-08, 01:44:07,VALID,918.508,VALID,0.0,VALID,97.096,VALID,-0.041,VALID,20.178,VALID,65.0,VALID,0.0,
2019-07-08, 01:45:07,VALID,918.499,VALID,0.0,VALID,97.17,VALID,-0.045,VALID,20.208,VALID,76.0,VALID,0.0,
2019-07-08, 01:46:07,VALID,918.462,VALID,0.0,VALID,97.081,VALID,-0.026,VALID,20.22,VALID,90.0,VALID,0.0,
2019-07-08, 01:47:07,VALID,918.448,VALID,0.0,VALID,97.048,VALID,-0.034,VALID,20.249,VALID,82.0,VALID,0.0,
2019-07-08, 01:48:07,VALID,918.444,VALID,0.0,VALID,97.019,VALID,0.009,VALID,20.276,VALID,81.0,VALID,0.0,
2019-07-08, 01:49:07,VALID,918.447,VALID,0.0,VALID,96.835,VALID,-0.002,VALID,20.261,VALID,76.0,VALID,0.0,
2019-07-08, 01:50:07,VALID,918.47,VALID,0.0,VALID,96.766,VALID,0.018,VALID,20.245,VALID,75.0,VALID,0.0,
2019-07-08, 01:51:07,VALID,918.505,VALID,0.0,VALID,96.8,VALID,-0.003,VALID,20.241,VALID,102.0,VALID,0.0,
2019-07-08, 01:52:07,VALID,918.563,VALID,0.0,VALID,96.754,VALID,0.017,VALID,20.229,VALID,132.0,VALID,0.0,
2019-07-08, 01:53:07,VALID,918.576,VALID,0.0,VALID,95.956,VALID,0.014,VALID,20.082,VALID,92.0,VALID,0.0,
2019-07-08, 01:54:07,VALID,918.576,VALID,0.0,VALID,95.964,VALID,0.005,VALID,20.021,VALID,92.0,VALID,0.0,
2019-07-08, 01:55:07,VALID,918.574,VALID,0.0,VALID,96.406,VALID,0.01,VALID,20.001,VALID,92.0,VALID,0.0,
2019-07-08, 01:56:07,VALID,918.568,VALID,0.0,VALID,96.974,VALID,0.008,VALID,20.037,VALID,105.0,VALID,0.0,
2019-07-08, 01:57:07,VALID,918.583,VALID,0.0,VALID,96.987,VALID,0.002,VALID,20.012,VALID,135.0,VALID,0.0,
2019-07-08, 01:58:07,VALID,918.587,VALID,0.0,VALID,97.048,VALID,0.017,VALID,19.985,VALID,134.0,VALID,0.0,
2019-07-08, 01:59:07,VALID,918.585,VALID,0.0,VALID,97.209,VALID,0.012,VALID,19.971,VALID,133.0,VALID,0.0,
2019-07-08, 02:00:07,VALID,918.569,VALID,0.0,VALID,97.294,VALID,0.012,VALID,19.949,VALID,133.0,VALID,0.0,
2019-07-08, 02:01:07,VALID,918.558,VALID,0.0,VALID,97.323,VALID,0.021,VALID,19.92,VALID,126.0,VALID,0.0,
2019-07-08, 02:02:07,VALID,918.51,VALID,0.0,VALID,97.175,VALID,0.009,VALID,19.834,VALID,108.0,VALID,0.0,
2019-07-08, 02:03:07,VALID,918.492,VALID,0.0,VALID,97.608,VALID,-0.007,VALID,19.881,VALID,108.0,VALID,0.0,
2019-07-08, 02:04:07,VALID,918.5,VALID,0.0,VALID,97.837,VALID,-0.008,VALID,19.878,VALID,91.0,VALID,0.0,
2019-07-08, 02:05:07,VALID,918.463,VALID,0.0,VALID,97.937,VALID,-0.003,VALID,19.93,VALID,102.0,VALID,0.0,
2019-07-08, 02:06:07,VALID,918.458,VALID,0.0,VALID,98.421,VALID,-0.001,VALID,20.196,VALID,90.0,VALID,0.0,
2019-07-08, 02:07:07,VALID,918.494,VALID,0.0,VALID,97.937,VALID,0.002,VALID,20.292,VALID,93.0,VALID,0.0,
2019-07-08, 02:08:07,VALID,918.5,VALID,0.0,VALID,97.224,VALID,-0.015,VALID,20.354,VALID,94.0,VALID,0.0,
2019-07-08, 02:09:07,VALID,918.55,VALID,0.0,VALID,96.808,VALID,0.007,VALID,20.452,VALID,87.0,VALID,0.0,
2019-07-08, 02:10:07,VALID,918.594,VALID,0.0,VALID,95.38,VALID,-0.003,VALID,20.392,VALID,56.0,VALID,0.0,
2019-07-08, 02:11:07,VALID,918.602,VALID,0.0,VALID,96.167,VALID,-0.005,VALID,20.461,VALID,78.0,VALID,0.0,
2019-07-08, 02:12:07,VALID,918.63,VALID,0.0,VALID,96.43,VALID,0.01,VALID,20.567,VALID,87.0,VALID,0.0,
2019-07-08, 02:13:07,VALID,918.636,VALID,0.0,VALID,95.972,VALID,0.014,VALID,20.653,VALID,90.0,VALID,0.0,
2019-07-08, 02:14:07,VALID,918.623,VALID,0.0,VALID,95.398,VALID,-0.007,VALID,20.665,VALID,90.0,VALID,0.0,
2019-07-08, 02:15:07,VALID,918.587,VALID,0.0,VALID,95.066,VALID,0.002,VALID,20.6,VALID,78.0,VALID,0.0,
2019-07-08, 02:16:07,VALID,918.562,VALID,0.0,VALID,95.237,VALID,-0.002,VALID,20.552,VALID,67.0,VALID,0.0,
2019-07-08, 02:17:07,VALID,918.548,VALID,0.0,VALID,95.318,VALID,-0.003,VALID,20.494,VALID,39.0,VALID,0.0,
2019-07-08, 02:18:07,VALID,918.513,VALID,0.0,VALID,95.926,VALID,-0.018,VALID,20.476,VALID,22.0,VALID,0.0,
2019-07-08, 02:19:07,VALID,918.519,VALID,0.0,VALID,96.326,VALID,-0.011,VALID,20.441,VALID,16.0,VALID,0.0,
2019-07-08, 02:20:07,VALID,918.497,VALID,0.0,VALID,96.527,VALID,-0.009,VALID,20.404,VALID,13.0,VALID,0.0,
2019-07-08, 02:21:07,VALID,918.489,VALID,0.0,VALID,96.651,VALID,-0.006,VALID,20.354,VALID,13.0,VALID,0.0,
2019-07-08, 02:22:07,VALID,918.5,VALID,0.0,VALID,96.754,VALID,-0.022,VALID,20.297,VALID,13.0,VALID,0.0,
2019-07-08, 02:23:07,VALID,918.51,VALID,0.0,VALID,96.821,VALID,-0.016,VALID,20.236,VALID,18.0,VALID,0.0,
2019-07-08, 02:24:07,VALID,918.494,VALID,0.0,VALID,96.493,VALID,-0.024,VALID,20.095,VALID,35.0,VALID,0.0,
2019-07-08, 02:25:07,VALID,918.479,VALID,0.0,VALID,96.377,VALID,-0.014,VALID,19.971,VALID,35.0,VALID,0.0,
2019-07-08, 02:26:07,VALID,918.421,VALID,0.0,VALID,97.085,VALID,-0.015,VALID,19.947,VALID,33.0,VALID,0.0,
2019-07-08, 02:27:07,VALID,918.41,VALID,0.0,VALID,97.614,VALID,-0.018,VALID,19.929,VALID,25.0,VALID,0.0,
2019-07-08, 02:28:07,VALID,918.373,VALID,0.0,VALID,97.852,VALID,-0.028,VALID,19.894,VALID,30.0,VALID,0.0,
2019-07-08, 02:29:07,VALID,918.338,VALID,0.0,VALID,98.063,VALID,-0.022,VALID,19.875,VALID,38.0,VALID,0.0,
2019-07-08, 02:30:07,VALID,918.289,VALID,0.0,VALID,98.185,VALID,-0.03,VALID,19.848,VALID,60.0,VALID,0.0,
2019-07-08, 02:31:07,VALID,918.255,VALID,0.0,VALID,98.403,VALID,-0.028,VALID,19.906,VALID,65.0,VALID,0.0,
2019-07-08, 02:32:07,VALID,918.228,VALID,0.0,VALID,98.404,VALID,-0.021,VALID,19.851,VALID,75.0,VALID,0.0,
2019-07-08, 02:33:07,VALID,918.196,VALID,0.0,VALID,98.18,VALID,-0.004,VALID,19.748,VALID,107.0,VALID,0.0,
2019-07-08, 02:34:07,VALID,918.167,VALID,0.0,VALID,98.239,VALID,-0.0,VALID,19.732,VALID,124.0,VALID,0.476,
2019-07-08, 02:35:07,VALID,918.146,VALID,0.0,VALID,98.435,VALID,-0.005,VALID,19.724,VALID,119.0,VALID,0.04,
2019-07-08, 02:36:07,VALID,918.146,VALID,0.0,VALID,98.588,VALID,0.019,VALID,19.712,VALID,85.0,VALID,0.0,
2019-07-08, 02:37:07,VALID,918.162,VALID,0.0,VALID,98.603,VALID,-0.02,VALID,19.637,VALID,57.0,VALID,0.0,
2019-07-08, 02:38:07,VALID,918.182,VALID,0.0,VALID,98.664,VALID,-0.015,VALID,19.618,VALID,75.0,VALID,0.0,
2019-07-08, 02:39:07,VALID,918.202,VALID,0.0,VALID,98.801,VALID,-0.013,VALID,19.629,VALID,95.0,VALID,0.0,
2019-07-08, 02:40:07,VALID,918.216,VALID,0.0,VALID,98.882,VALID,-0.011,VALID,19.641,VALID,102.0,VALID,0.0,
2019-07-08, 02:41:07,VALID,918.192,VALID,0.0,VALID,98.952,VALID,-0.007,VALID,19.655,VALID,107.0,VALID,0.0,
2019-07-08, 02:42:07,VALID,918.215,VALID,0.0,VALID,99.007,VALID,0.013,VALID,19.666,VALID,96.0,VALID,0.0,
2019-07-08, 02:43:07,VALID,918.175,VALID,0.0,VALID,99.112,VALID,-0.011,VALID,19.723,VALID,99.0,VALID,0.0,
2019-07-08, 02:44:07,VALID,918.144,VALID,0.0,VALID,99.094,VALID,-0.007,VALID,19.701,VALID,128.0,VALID,0.0,
2019-07-08, 02:45:07,VALID,918.103,VALID,0.0,VALID,99.083,VALID,-0.01,VALID,19.656,VALID,130.0,VALID,0.0,
2019-07-08, 02:46:07,VALID,918.105,VALID,0.0,VALID,99.116,VALID,0.003,VALID,19.657,VALID,119.0,VALID,0.0,
2019-07-08, 02:47:07,VALID,918.074,VALID,0.0,VALID,99.14,VALID,-0.019,VALID,19.679,VALID,111.0,VALID,0.0,
2019-07-08, 02:48:07,VALID,918.047,VALID,0.0,VALID,99.139,VALID,-0.074,VALID,19.635,VALID,131.0,VALID,0.0,
2019-07-08, 02:49:07,VALID,918.03,VALID,0.0,VALID,99.145,VALID,-0.083,VALID,19.612,VALID,131.0,VALID,0.0,
2019-07-08, 02:50:07,VALID,918.022,VALID,0.0,VALID,99.188,VALID,-0.065,VALID,19.62,VALID,83.0,VALID,0.0,
2019-07-08, 02:51:07,VALID,918.014,VALID,0.0,VALID,99.173,VALID,-0.08,VALID,19.55,VALID,97.0,VALID,0.0,
2019-07-08, 02:52:06,VALID,917.993,VALID,0.0,VALID,99.181,VALID,-0.088,VALID,19.548,VALID,113.0,VALID,0.0,
2019-07-08, 02:53:06,VALID,917.963,VALID,0.0,VALID,99.304,VALID,-0.073,VALID,19.721,VALID,96.0,VALID,0.0,
2019-07-08, 02:54:06,VALID,917.922,VALID,0.0,VALID,99.314,VALID,-0.086,VALID,19.765,VALID,88.0,VALID,0.0,
2019-07-08, 02:55:06,VALID,917.906,VALID,0.0,VALID,99.288,VALID,-0.085,VALID,19.747,VALID,92.0,VALID,0.0,
2019-07-08, 02:56:06,VALID,917.886,VALID,0.0,VALID,99.276,VALID,-0.095,VALID,19.751,VALID,108.0,VALID,0.0,
2019-07-08, 02:57:06,VALID,917.882,VALID,0.0,VALID,99.284,VALID,-0.06,VALID,19.785,VALID,115.0,VALID,0.0,
2019-07-08, 02:58:06,VALID,917.866,VALID,0.0,VALID,99.279,VALID,-0.069,VALID,19.823,VALID,119.0,VALID,0.0,
2019-07-08, 02:59:06,VALID,917.872,VALID,0.0,VALID,99.26,VALID,-0.065,VALID,19.85,VALID,125.0,VALID,0.0,
2019-07-08, 03:00:06,VALID,917.927,VALID,0.0,VALID,99.189,VALID,-0.062,VALID,19.829,VALID,133.0,VALID,0.0,
2019-07-08, 03:01:06,VALID,917.971,VALID,0.0,VALID,99.169,VALID,-0.06,VALID,19.872,VALID,136.0,VALID,0.0,
2019-07-08, 03:02:06,VALID,918.007,VALID,0.0,VALID,99.154,VALID,-0.062,VALID,19.944,VALID,135.0,VALID,0.0,
2019-07-08, 03:03:06,VALID,918.027,VALID,0.0,VALID,99.073,VALID,-0.054,VALID,20.017,VALID,114.0,VALID,0.0,
2019-07-08, 03:04:06,VALID,918.081,VALID,0.0,VALID,98.93,VALID,-0.045,VALID,20.076,VALID,102.0,VALID,0.0,
2019-07-08, 03:05:06,VALID,918.112,VALID,0.0,VALID,98.708,VALID,-0.052,VALID,20.084,VALID,102.0,VALID,0.0,
2019-07-08, 03:06:06,VALID,918.135,VALID,0.0,VALID,98.466,VALID,-0.059,VALID,20.08,VALID,107.0,VALID,0.0,
2019-07-08, 03:07:06,VALID,918.135,VALID,0.0,VALID,98.197,VALID,-0.053,VALID,20.087,VALID,131.0,VALID,0.0,
2019-07-08, 03:08:06,VALID,918.138,VALID,0.0,VALID,98.056,VALID,-0.043,VALID,20.149,VALID,157.0,VALID,0.0,
2019-07-08, 03:09:06,VALID,918.147,VALID,0.0,VALID,97.909,VALID,-0.043,VALID,20.201,VALID,138.0,VALID,0.0,
2019-07-08, 03:10:06,VALID,918.117,VALID,0.0,VALID,97.723,VALID,-0.043,VALID,20.23,VALID,138.0,VALID,0.0,
2019-07-08, 03:11:06,VALID,918.107,VALID,0.0,VALID,97.54,VALID,-0.041,VALID,20.271,VALID,139.0,VALID,0.0,
2019-07-08, 03:12:06,VALID,918.092,VALID,0.0,VALID,97.334,VALID,-0.053,VALID,20.297,VALID,138.0,VALID,0.0,
2019-07-08, 03:13:06,VALID,918.071,VALID,0.0,VALID,97.133,VALID,-0.04,VALID,20.291,VALID,124.0,VALID,0.0,
2019-07-08, 03:14:06,VALID,918.092,VALID,0.0,VALID,96.923,VALID,-0.051,VALID,20.27,VALID,117.0,VALID,0.0,
2019-07-08, 03:15:06,VALID,918.07,VALID,0.0,VALID,96.936,VALID,-0.058,VALID,20.277,VALID,119.0,VALID,0.0,
2019-07-08, 03:16:06,VALID,918.091,VALID,0.0,VALID,96.948,VALID,-0.064,VALID,20.309,VALID,123.0,VALID,0.0,
2019-07-08, 03:17:06,VALID,918.109,VALID,0.0,VALID,97.063,VALID,-0.042,VALID,20.364,VALID,121.0,VALID,0.0,
2019-07-08, 03:18:06,VALID,918.124,VALID,0.0,VALID,97.046,VALID,-0.008,VALID,20.4,VALID,107.0,VALID,0.0,
2019-07-08, 03:19:06,VALID,918.145,VALID,0.0,VALID,96.89,VALID,0.005,VALID,20.425,VALID,112.0,VALID,0.0,
2019-07-08, 03:20:06,VALID,918.144,VALID,0.0,VALID,96.859,VALID,-0.011,VALID,20.45,VALID,139.0,VALID,0.0,
2019-07-08, 03:21:06,VALID,918.148,VALID,0.0,VALID,96.679,VALID,-0.012,VALID,20.475,VALID,130.0,VALID,0.0,
2019-07-08, 03:22:06,VALID,918.126,VALID,0.0,VALID,96.676,VALID,-0.008,VALID,20.492,VALID,140.0,VALID,0.0,
2019-07-08, 03:23:06,VALID,918.132,VALID,0.0,VALID,96.708,VALID,-0.023,VALID,20.505,VALID,160.0,VALID,0.0,
2019-07-08, 03:24:06,VALID,918.134,VALID,0.0,VALID,96.576,VALID,-0.009,VALID,20.523,VALID,121.0,VALID,0.0,
2019-07-08, 03:25:06,VALID,918.136,VALID,0.0,VALID,96.556,VALID,0.01,VALID,20.531,VALID,132.0,VALID,0.0,
2019-07-08, 03:26:06,VALID,918.136,VALID,0.0,VALID,96.63,VALID,-0.01,VALID,20.54,VALID,132.0,VALID,0.0,
2019-07-08, 03:27:06,VALID,918.128,VALID,0.0,VALID,96.587,VALID,-0.006,VALID,20.547,VALID,125.0,VALID,0.0,
2019-07-08, 03:28:06,VALID,918.126,VALID,0.0,VALID,96.549,VALID,-0.018,VALID,20.548,VALID,115.0,VALID,0.0,
2019-07-08, 03:29:06,VALID,918.123,VALID,0.0,VALID,96.48,VALID,-0.009,VALID,20.548,VALID,126.0,VALID,0.0,
2019-07-08, 03:30:06,VALID,918.089,VALID,0.0,VALID,96.473,VALID,-0.005,VALID,20.572,VALID,132.0,VALID,0.569,
2019-07-08, 03:31:06,VALID,918.077,VALID,0.0,VALID,96.508,VALID,-0.008,VALID,20.584,VALID,133.0,VALID,0.0,
2019-07-08, 03:32:06,VALID,918.049,VALID,0.0,VALID,96.467,VALID,-0.01,VALID,20.579,VALID,125.0,VALID,0.0,
2019-07-08, 03:33:06,VALID,918.042,VALID,0.0,VALID,96.521,VALID,-0.016,VALID,20.556,VALID,125.0,VALID,0.0,
2019-07-08, 03:34:06,VALID,918.012,VALID,0.0,VALID,96.776,VALID,-0.025,VALID,20.53,VALID,129.0,VALID,0.0,
2019-07-08, 03:35:06,VALID,918.01,VALID,0.0,VALID,96.87,VALID,-0.018,VALID,20.473,VALID,64.0,VALID,0.266,
2019-07-08, 03:36:06,VALID,918.017,VALID,0.0,VALID,96.91,VALID,-0.018,VALID,20.347,VALID,94.0,VALID,1.013,
2019-07-08, 03:37:06,VALID,917.999,VALID,0.0,VALID,97.352,VALID,-0.007,VALID,20.257,VALID,106.0,VALID,0.947,
2019-07-08, 03:38:06,VALID,918.004,VALID,0.0,VALID,97.77,VALID,0.002,VALID,20.211,VALID,115.0,VALID,1.306,
2019-07-08, 03:39:06,VALID,917.993,VALID,0.0,VALID,98.089,VALID,-0.011,VALID,20.224,VALID,116.0,VALID,1.467,
2019-07-08, 03:40:06,VALID,918.001,VALID,0.0,VALID,98.123,VALID,-0.027,VALID,20.232,VALID,115.0,VALID,1.747,
2019-07-08, 03:41:06,VALID,917.985,VALID,0.0,VALID,98.091,VALID,-0.018,VALID,20.261,VALID,124.0,VALID,1.303,
2019-07-08, 03:42:06,VALID,917.977,VALID,0.0,VALID,97.98,VALID,-0.025,VALID,20.241,VALID,113.0,VALID,1.52,